Other Public Products
Issued by NWS Grand Forks, ND

Home | Current Version | Previous Version | Graphics & Text | Print | Product List | Glossary On
Versions: 1 2 3 4 5 6 7 8 9 10 11 12 13 14 15 16 17 18 19 20 21 22 23 24 25 26 27 28 29 30 31 32 33 34 35 36 37 38 39 40 41 42 43 44 45 46 47 48 49 50
000
FPUS83 KFGF 260831
OPUFGF
PRAIRIE TO PINES WEATHER ROUNDUP
NATIONAL WEATHER SERVICE EASTERN NORTH DAKOTA/GRAND FORKS ND
300 AM CDT SAT JUL 26 2014

 **SATELLITE DATA USED TO AUGMENT SKY COVER AT AUTOMATED STATIONS**
 *****  WEATHER ACROSS EASTERN NORTH DAKOTA  *****

CITY           SKY/WX    TMP DP  RH WIND       PRES   REMARKS
GRAND FORKS    CLEAR     60  55  83 S8        29.76F
GRAND FORKS AF CLEAR     58  58  99 S8        29.76F
GRAND CITY NWS   N/A     59 N/A N/A SW1         N/A
BUXTON           N/A     61  60  97 SW5         N/A
DEVILS LAKE    CLEAR     64  52  63 S10       29.75F
FARGO          CLEAR     58  54  86 CALM      29.79F
WAHPETON ARPT  SUNNY     55  52  88 CALM      29.81S
$$

 *****  WEATHER ACROSS CENTRAL AND WESTERN NORTH DAKOTA  *****

CITY           SKY/WX    TMP DP  RH WIND       PRES   REMARKS
JAMESTOWN      CLEAR     58  55  90 S3        29.81F
BISMARCK       CLEAR     62  53  72 W6        29.82R
MINOT          CLEAR     58  51  78 SW3       29.78F
MINOT AFB      CLEAR     56  56  99 SW5       29.77F
GARRISON         N/A     59  55  87 NW10      29.80R
WILLISTON      CLEAR     56  50  80 SW5       29.84S
DICKINSON      CLEAR     57  47  69 NW10      29.87R
HETTINGER      CLEAR     56  49  77 CALM      29.88S
$$

 *****  OTHER OBSERVATIONS NORTHEAST NORTH DAKOTA  *****

CITY           SKY/WX    TMP DP  RH WIND       PRES   REMARKS
WALHALLA         N/A     61  55  82 S3          N/A
LANGDON        FAIR      54  50  87 S9        29.75F
CAVALIER       FAIR      59  54  82 SW3       29.73F
GRAFTON        FAIR      55  54  94 S3        29.74F
CANDO          FAIR      59  54  82 S12       29.75F
FORT TOTTEN      N/A     61  52  73 S8        29.95S
ROLLA          FAIR      55  55 100 SW7       29.76F
RUGBY          FAIR      59  55  88 W15       29.77R
 ***** THE ABOVE OBSERVATIONS ARE NON NWS ARE NOT QUALITY
        CONTROLLED AND MAY MIS-REPORT RAIN FOR SNOW...
$$

 *****  OTHER OBSERVATIONS SOUTHEAST NORTH DAKOTA *****

CITY           SKY/WX    TMP DP  RH WIND       PRES   REMARKS
COOPERSTOWN    NOT AVBL
VALLEY CITY    FAIR      55  55 100 S3        29.82S
OAKES          NOT AVBL
GWINNER        SUNNY     61  61 100 SW7       29.83F
BUFFALO        NOT AVBL
WYNDMERE       NOT AVBL
 ***** THE ABOVE OBSERVATIONS ARE NON NWS ARE NOT QUALITY
       CONTROLLED AND MAY MIS-REPORT RAIN FOR SNOW...
$$

  *****  WEATHER ACROSS NORTHERN MINNESOTA  *****

CITY           SKY/WX    TMP DP  RH WIND       PRES   REMARKS
FLAG ISLAND    CLEAR     64  54  68 W14       29.71R
WARROAD        CLEAR     57  54  88 SW7       29.75S
ROSEAU         CLEAR     61  55  82 SW6       29.75S
HALLOCK        CLEAR     57  54  88 S3        29.74S
THF RVR FALLS  CLEAR     59  54  82 CALM      29.78S
HALSTAD          N/A     54  52  92 S5          N/A
FOSSTON        CLEAR     52  52 100 S6        29.80S
BAUDETTE       CLEAR     57  53  86 SW5       29.75S
WASKISH        CLEAR     68  59  73 W7        29.76S
CROOKSTON      CLEAR     57  54  88 SW5       29.78F
$$
  *****  WEATHER ACROSS CENTRAL AND WEST MINNESOTA  *****

CITY           SKY/WX    TMP DP  RH WIND       PRES   REMARKS
BEMIDJI        CLEAR     58  54  85 CALM      29.79S
PARK RAPIDS    CLEAR     58  56  93 CALM      29.80F
WADENA         CLEAR     55  55 100 CALM      29.81S
DETROIT LAKES  CLEAR     61  57  88 CALM      29.83S
MOORHEAD       CLEAR     59  57  94 CALM      29.81S
FERGUS FALLS   CLEAR     61  55  82 CALM      29.81F
ELBOW LAKE     FAIR      59  59 100 CALM      29.81F FOG
MORRIS MN      CLEAR     61  61 100 CALM      29.81F FOG
STAPLES        CLEAR     57  57 100 CALM      29.81S
WHEATON        CLEAR     61  59  94 W2        29.84F
$$
  *****  WEATHER ELSEWHERE ACROSS MINNESOTA  *****

CITY           SKY/WX    TMP DP  RH WIND       PRES   REMARKS
DULUTH         CLOUDY    71  67  87 W8        29.77R
INTRNTL FALLS  CLEAR     59  57  93 SW6       29.74S
ELY            PTCLDY    66  64  94 W5        29.76S
CLOQUET        MOCLDY    70  66  88 W9        29.78R
BRAINERD       CLEAR     64  62  93 W6        29.80F
HIBBING        FOG       60  59  96 CALM      29.77S VSB 1/4
ALEXANDRIA     PTCLDY    60  59  96 SW5       29.83F FOG
SAINT CLOUD    CLEAR     69  66  90 NW5       29.81R FOG
MINNEAPOLIS    CLOUDY    74  70  87 CALM      29.80S
$$

  *****  WEATHER ACROSS SOUTH DAKOTA  *****

CITY           SKY/WX    TMP DP  RH WIND       PRES   REMARKS
SIOUX FALLS    PTCLDY    71  69  93 NE5       29.83F
BROOKINGS      NOT AVBL
WATERTOWN      CLEAR     63  63 100 CALM      29.85F FOG
HURON          CLOUDY    70  66  87 NE7       29.78F
SISSETON         N/A     59  58  96 W6        29.81F
ABERDEEN       PTCLDY    56  56 100 CALM      29.82F
MITCHELL       MOCLDY    69  67  93 N6        29.84S
PIERRE         MOCLDY    70  68  93 NE9       29.81S
MOBRIDGE       PTCLDY    66  65  96 SW6       29.79F
RAPID CITY     CLEAR     60  51  72 N8        29.88F
$$

  *****  SOME WEATHER IN NEARBY STATES *****

CITY           SKY/WX    TMP DP  RH WIND       PRES   REMARKS
GLASGOW MT     CLEAR     58  48  69 W14       29.91R
GREAT FALLS MT CLEAR     52  37  56 SW8       30.06R
CHEYENNE WY    CLEAR     70  43  37 W20       30.11F
SCOTTSBLUFF NE CLEAR     63  58  83 E5        29.92F
OMAHA NE       MOCLDY    75  71  87 CALM      29.80F
DES MOINES IA  PTCLDY    72  68  87 NE6       29.79S
DAVENPORT IA   MOCLDY    67  62  84 SE8       29.83F
CHICAGO IL     CLEAR     68  57  68 SW6       29.87F
EAU CLAIRE WI  CLOUDY    69  67  93 SW7       29.81F
LA CROSSE WI   CLOUDY    69  65  86 S9        29.83F
$$

  *****  SOME NATIONAL WEATHER *****

CITY           SKY/WX    TMP DP  RH WIND       PRES   REMARKS
LA GUARDIA NY  MOCLDY    72  60  66 SW7       29.98S
RALEIGH NC     MOCLDY    70  66  88 CALM      30.01S
ATLANTA GA     PTCLDY    73  67  81 CALM      30.02S
NEW ORLEANS LA PTCLDY    79  75  87 SW7       30.01S
OKLAHOMA CITY  PTCLDY    75  66  73 S8        29.91F
ALBUQUERQUE NM PTCLDY    78  41  26 E7        30.12F
SALT LAKE CITY PTCLDY    75  45  34 CALM      30.02R
LOS ANGELES CA FOG       66  64  94 W5        29.93R VSB 1/2
BOISE ID       CLEAR     63  31  30 S6        30.03R
SEATTLE WA     CLEAR     60  51  72 N6        30.12S
$$

*** WEATHER ACROSS MANITOBA...SASKATCHEWAN AND ONTARIO ***
                ***ONTARIO***

CITY           SKY/WX    TMP DP  RH WIND       PRES   REMARKS
GERALDTON      CLOUDY   N/A N/A N/A CALM        N/A  FOG
THUNDER BAY    MOCLDY    59  57  94 NE3       29.73F
SIOUX LOOKOUT  MOCLDY    64  64 100 CALM      29.68R
TORONTO        PTCLDY    64  54  68 S7        29.92F
BIG TROUT LK   CLOUDY    52  46  82 E6        29.84S
PICKLE LAKE    NOT AVBL
DRYDEN         PTCLDY    63  61  94 SW7       29.69F
KENORA         PTCLDY    63  57  82 W6        29.72S
$$
                *** MANITOBA***

CITY           SKY/WX    TMP DP  RH WIND       PRES   REMARKS
BRANDON        MOCLDY    63  55  77 SW10      29.69F
DAUPHIN        CLOUDY    68  54  60 SW7       29.62F
ISLAND LAKE    PTCLDY    57  52  82 E9        29.79R
PILOT MOUND      N/A     54  52  94 S8          N/A
THE PAS        CLOUDY    63  59  88 E6        29.68
THOMPSON       PTCLDY    52  48  87 E10G18    29.87R
WINNIPEG       CLEAR     59  54  82 SW9       29.71F
LYNN LAKE      CLEAR     57  52  82 E10       29.88R
CHURCHILL      FOG       46  45  93 E7        30.06S VSB 1/4
GILLAM         MOCLDY    45  45 100 NE6       29.94S FOG
$$
                ***SASKATCHEWAN***

CITY           SKY/WX    TMP DP  RH WIND       PRES   REMARKS
ESTEVAN        LGT RAIN  59  52  77 W13       29.76S
KINDERSLEY     PTCLDY    55  54  94 NW14G21   29.83R
LLOYDMINSTER   PTCLDY    57  55  94 NW12      29.82R
PRINCE ALBERT  LGT RAIN  57  55  94 N10       29.69R
REGINA         LGT RAIN  55  54  94 W24G33    29.65F
YORKTON        CLOUDY    59  54  82 S7        29.61F



USA.gov is the U.S. government's official web portal to all federal, state and local government web resources and services.